TimeCST,TemperatureF,Dew PointF,Humidity,Sea Level PressureIn,VisibilityMPH,Wind Direction,Wind SpeedMPH,Gust SpeedMPH,PrecipitationIn,Events,Conditions,WindDirDegrees,DateUTC
12:14 AM,3.2,-0.4,85,30.26,10.0,Calm,Calm,-,N/A,,Clear,0,2013-02-16 06:14:00
12:33 AM,6.8,3.2,85,30.25,10.0,Calm,Calm,-,N/A,,Clear,0,2013-02-16 06:33:00
12:53 AM,6.8,1.4,79,30.25,10.0,Calm,Calm,-,N/A,,Clear,0,2013-02-16 06:53:00
1:14 AM,5.0,1.4,85,30.24,10.0,Calm,Calm,-,N/A,,Clear,0,2013-02-16 07:14:00
1:33 AM,3.2,-0.4,85,30.24,10.0,Calm,Calm,-,N/A,,Clear,0,2013-02-16 07:33:00
1:53 AM,3.2,1.4,92,30.23,7.0,Calm,Calm,-,N/A,Snow,Light Snow,0,2013-02-16 07:53:00
2:14 AM,5.0,1.4,85,30.23,10.0,WSW,3.5,-,N/A,,Clear,250,2013-02-16 08:14:00
2:33 AM,5.0,1.4,85,30.22,10.0,Calm,Calm,-,N/A,,Clear,0,2013-02-16 08:33:00
2:53 AM,1.4,-2.2,85,30.22,10.0,Calm,Calm,-,N/A,,Clear,0,2013-02-16 08:53:00
3:14 AM,3.2,-0.4,85,30.21,10.0,Calm,Calm,-,N/A,,Clear,0,2013-02-16 09:14:00
3:33 AM,3.2,1.4,92,30.19,10.0,Calm,Calm,-,N/A,,Clear,0,2013-02-16 09:33:00
3:54 AM,5.0,1.4,85,30.19,10.0,Calm,Calm,-,N/A,,Clear,0,2013-02-16 09:54:00
4:13 AM,3.2,-0.4,85,30.18,10.0,Calm,Calm,-,N/A,,Clear,0,2013-02-16 10:13:00
4:33 AM,3.2,-0.4,85,30.18,10.0,SSW,3.5,-,N/A,,Clear,200,2013-02-16 10:33:00
4:54 AM,3.2,-0.4,85,30.18,10.0,Calm,Calm,-,N/A,,Clear,0,2013-02-16 10:54:00
5:13 AM,3.2,-0.4,85,30.17,10.0,Calm,Calm,-,N/A,,Clear,0,2013-02-16 11:13:00
5:33 AM,3.2,-0.4,85,30.16,10.0,Calm,Calm,-,N/A,,Clear,0,2013-02-16 11:33:00
5:54 AM,1.4,-2.2,85,30.16,10.0,SSE,3.5,-,N/A,,Clear,160,2013-02-16 11:54:00
6:13 AM,1.4,-2.2,85,30.15,10.0,Calm,Calm,-,N/A,,Clear,0,2013-02-16 12:13:00
6:33 AM,1.4,-2.2,85,30.15,10.0,Calm,Calm,-,N/A,,Clear,0,2013-02-16 12:33:00
6:54 AM,1.4,-2.2,85,30.14,7.0,SE,3.5,-,N/A,,Clear,130,2013-02-16 12:54:00
7:13 AM,1.4,-2.2,85,30.14,7.0,Calm,Calm,-,N/A,,Clear,0,2013-02-16 13:13:00
7:33 AM,1.4,-2.2,85,30.14,7.0,Calm,Calm,-,N/A,,Clear,0,2013-02-16 13:33:00
7:54 AM,1.4,-2.2,85,30.13,7.0,Calm,Calm,-,N/A,,Clear,0,2013-02-16 13:54:00
8:13 AM,1.4,-2.2,85,30.13,7.0,Calm,Calm,-,N/A,,Clear,0,2013-02-16 14:13:00
8:33 AM,3.2,-0.4,85,30.13,10.0,Calm,Calm,-,N/A,,Clear,0,2013-02-16 14:33:00
8:54 AM,3.2,1.4,92,30.13,7.0,SE,4.6,-,N/A,,Scattered Clouds,140,2013-02-16 14:54:00
9:13 AM,5.0,1.4,85,30.13,10.0,Calm,Calm,-,N/A,Snow,Light Snow,0,2013-02-16 15:13:00
9:33 AM,6.8,3.2,85,30.13,7.0,SSE,5.8,-,N/A,Snow,Light Snow,150,2013-02-16 15:33:00
9:53 AM,8.6,6.8,92,30.11,7.0,SSE,9.2,-,N/A,Snow,Light Snow,150,2013-02-16 15:53:00
10:13 AM,10.4,6.8,85,30.11,10.0,SSE,11.5,-,N/A,Snow,Light Snow,160,2013-02-16 16:13:00
10:34 AM,10.4,6.8,85,30.11,10.0,SSE,10.4,-,N/A,Snow,Light Snow,150,2013-02-16 16:34:00
10:53 AM,10.4,8.6,92,30.11,10.0,SE,11.5,-,N/A,Snow,Light Snow,140,2013-02-16 16:53:00
11:13 AM,12.2,8.6,85,30.11,10.0,SE,11.5,-,N/A,,Scattered Clouds,140,2013-02-16 17:13:00
11:34 AM,12.2,8.6,85,30.11,10.0,SE,11.5,-,N/A,,Mostly Cloudy,140,2013-02-16 17:34:00
11:53 AM,12.2,8.6,85,30.11,10.0,SE,11.5,-,N/A,,Scattered Clouds,130,2013-02-16 17:53:00
12:13 PM,12.2,10.4,92,30.10,10.0,SE,15.0,-,N/A,,Scattered Clouds,140,2013-02-16 18:13:00
12:34 PM,12.2,10.4,92,30.10,10.0,SE,13.8,-,N/A,,Scattered Clouds,130,2013-02-16 18:34:00
12:53 PM,14.0,10.4,86,30.08,10.0,SE,13.8,-,N/A,,Scattered Clouds,140,2013-02-16 18:53:00
1:14 PM,15.8,12.2,86,30.08,10.0,SE,13.8,-,N/A,,Scattered Clouds,140,2013-02-16 19:14:00
1:34 PM,15.8,12.2,86,30.07,10.0,SE,12.7,-,N/A,,Scattered Clouds,130,2013-02-16 19:34:00
1:53 PM,15.8,12.2,86,30.07,10.0,SE,15.0,-,N/A,,Scattered Clouds,140,2013-02-16 19:53:00
2:14 PM,17.6,12.2,79,30.07,10.0,SE,13.8,-,N/A,,Mostly Cloudy,140,2013-02-16 20:14:00
2:34 PM,17.6,12.2,79,30.06,10.0,SE,15.0,-,N/A,,Scattered Clouds,140,2013-02-16 20:34:00
2:53 PM,17.6,12.2,79,30.06,10.0,SE,15.0,-,N/A,,Mostly Cloudy,130,2013-02-16 20:53:00
3:14 PM,17.6,14.0,86,30.06,10.0,SE,13.8,-,N/A,,Mostly Cloudy,140,2013-02-16 21:14:00
3:34 PM,19.4,14.0,80,30.06,10.0,SE,15.0,-,N/A,,Overcast,140,2013-02-16 21:34:00
3:53 PM,19.4,14.0,80,30.06,10.0,SE,16.1,-,N/A,,Mostly Cloudy,140,2013-02-16 21:53:00
4:14 PM,19.4,15.8,86,30.06,10.0,SE,13.8,-,N/A,,Overcast,130,2013-02-16 22:14:00
4:34 PM,19.4,15.8,86,30.06,10.0,SE,12.7,-,N/A,,Overcast,130,2013-02-16 22:34:00
4:53 PM,19.4,15.8,86,30.06,10.0,SE,12.7,-,N/A,,Overcast,130,2013-02-16 22:53:00
5:14 PM,19.4,15.8,86,30.06,10.0,SE,11.5,-,N/A,,Overcast,130,2013-02-16 23:14:00
5:34 PM,19.4,15.8,86,30.06,10.0,SE,10.4,-,N/A,,Overcast,130,2013-02-16 23:34:00
5:53 PM,17.6,14.0,86,30.07,10.0,ESE,9.2,-,N/A,,Overcast,120,2013-02-16 23:53:00
6:14 PM,17.6,14.0,86,30.06,10.0,SE,11.5,-,N/A,,Mostly Cloudy,130,2013-02-17 00:14:00
6:34 PM,15.8,12.2,86,30.06,10.0,SE,9.2,-,N/A,,Clear,130,2013-02-17 00:34:00
6:53 PM,14.0,10.4,86,30.06,10.0,SE,9.2,-,N/A,,Clear,130,2013-02-17 00:53:00
7:14 PM,14.0,10.4,86,30.05,10.0,SE,9.2,-,N/A,,Clear,130,2013-02-17 01:14:00
7:34 PM,12.2,8.6,85,30.05,10.0,ESE,8.1,-,N/A,,Clear,110,2013-02-17 01:34:00
7:53 PM,12.2,8.6,85,30.05,10.0,ESE,8.1,-,N/A,,Clear,110,2013-02-17 01:53:00
8:14 PM,10.4,8.6,92,30.05,10.0,ESE,6.9,-,N/A,,Clear,110,2013-02-17 02:14:00
8:33 PM,10.4,6.8,85,30.05,10.0,ESE,6.9,-,N/A,,Clear,110,2013-02-17 02:33:00
8:54 PM,10.4,6.8,85,30.05,10.0,ESE,4.6,-,N/A,,Clear,110,2013-02-17 02:54:00
9:14 PM,10.4,6.8,85,30.06,10.0,ESE,4.6,-,N/A,,Mostly Cloudy,110,2013-02-17 03:14:00
9:33 PM,10.4,8.6,92,30.05,10.0,SE,3.5,-,N/A,,Overcast,130,2013-02-17 03:33:00
9:54 PM,12.2,8.6,85,30.04,10.0,SE,6.9,-,N/A,,Overcast,140,2013-02-17 03:54:00
10:14 PM,12.2,10.4,92,30.03,10.0,SSE,8.1,-,N/A,,Overcast,150,2013-02-17 04:14:00
10:33 PM,12.2,10.4,92,30.03,10.0,SE,8.1,-,N/A,,Overcast,140,2013-02-17 04:33:00
10:54 PM,14.0,10.4,86,30.03,10.0,SE,9.2,-,N/A,,Overcast,140,2013-02-17 04:54:00
11:14 PM,14.0,10.4,86,30.02,10.0,SE,8.1,-,N/A,,Overcast,140,2013-02-17 05:14:00
11:33 PM,14.0,10.4,86,30.01,10.0,SE,9.2,-,N/A,,Overcast,140,2013-02-17 05:33:00
11:54 PM,14.0,10.4,86,30.01,10.0,SE,8.1,-,N/A,,Overcast,140,2013-02-17 05:54:00